Danville, IN

4:50 PM EDT on August 18, 2017 (GMT -0400)
Vermilion County

Weather History for KDNV - July, 2013

Change the Weather History Date:

Wednesday, July 17, 2013

  Actual Average (KLAF) Record (KLAF)
Temperature  
Mean Temperature 86 °F -  
Max Temperature 101 °F 88 °F 98 °F (2012)
Min Temperature 70 °F 64 °F 49 °F (1985)
Cooling Degree Days 20    
Growing Degree Days 36 (Base 50)    
Moisture  
Dew Point 70 °F    
Average Humidity 56    
Maximum Humidity 83    
Minimum Humidity 37    
Precipitation  
Precipitation 0.00 in - - ()
Sea Level Pressure  
Sea Level Pressure 30.25 in    
Wind  
Wind Speed 1 mph (West)    
Max Wind Speed 7 mph    
Max Gust Speed -    
Visibility 7 miles    
Events      
Averages and records for this station are not official NWS values.
T = Trace of Precipitation, MM = Missing Value Source: NWS Daily Summary

Daily Weather History Graph

Daily Weather History Graph

Search for Another Location

Airport or City:

Trip Planner

Search our weather history database for the weather conditions in past years. The results will help you decide how hot, cold, wet, or windy it might be!

Date:

Astronomy

Jul. 17, 2013 Rise Set
Actual Time 5:35 AM CDT 8:17 PM CDT
Civil Twilight 5:03 AM CDT 8:49 PM CDT
Nautical Twilight 4:23 AM CDT 9:28 PM CDT
Astronomical Twilight 3:38 AM CDT 10:13 PM CDT
Moon 3:06 PM CDT (7/17) 12:42 AM CDT (7/17)
Length of Visible Light 15h 45m
Length of Day
14h 42m
Waxing Gibbous, 67% of the Moon is Illuminated
Jul 17
Waxing Gibbous
Jul 22
Full
Jul 29
Last Quarter
Aug 6
New
Aug 14
First Quarter

Hourly Weather History & Observations

Time (CDT) Temp. Heat Index Dew Point Humidity Pressure Visibility Wind Dir Wind Speed Gust Speed Precip Events Conditions
12:55 AM 70.7 °F - 63.9 °F 79% 30.29 in 7.0 mi Calm Calm - N/A   Clear
6:55 AM 75.6 °F - 70.2 °F 83% 30.32 in 7.0 mi Calm Calm - N/A   Clear
7:15 AM 78.8 °F - 71.2 °F 78% 30.32 in 7.0 mi Calm Calm - N/A   Clear
7:35 AM 81.5 °F 86.7 °F 73.2 °F 76% 30.33 in 7.0 mi Calm Calm - N/A   Clear
7:55 AM 84.6 °F 92.4 °F 74.8 °F 72% 30.33 in 7.0 mi Calm Calm - N/A   Clear
8:15 AM 86.0 °F 94.6 °F 74.8 °F 69% 30.33 in 7.0 mi Calm Calm - N/A   Clear
8:35 AM 87.1 °F 96.8 °F 75.4 °F 68% 30.33 in 7.0 mi Calm Calm - N/A   Clear
8:55 AM 88.9 °F 98.6 °F 75.0 °F 63% 30.32 in 7.0 mi Calm Calm - N/A   Clear
9:15 AM 90.7 °F 99.6 °F 73.8 °F 57% 30.32 in 5.0 mi Calm Calm - N/A   Haze
9:35 AM 91.9 °F 102.6 °F 74.7 °F 57% 30.32 in 10.0 mi Calm Calm - N/A   Clear
9:55 AM 92.8 °F 102.2 °F 73.2 °F 53% 30.32 in 10.0 mi Calm Calm - N/A   Clear
10:15 AM 93.4 °F 102.8 °F 73.2 °F 52% 30.32 in 7.0 mi Calm Calm - N/A   Clear
10:35 AM 92.5 °F 101.3 °F 72.9 °F 53% 30.32 in 5.0 mi Calm Calm - N/A   Haze
10:55 AM 95.4 °F 104.0 °F 72.5 °F 47% 30.32 in 7.0 mi Calm Calm - N/A   Scattered Clouds
11:15 AM 90.9 °F 97.8 °F 71.4 °F 53% 30.31 in 10.0 mi Calm Calm - N/A   Scattered Clouds
11:35 AM 95.2 °F 104.9 °F 73.4 °F 49% 30.31 in 10.0 mi Calm Calm - N/A   Scattered Clouds
11:55 AM 99.0 °F 110.9 °F 74.1 °F 45% 30.30 in 7.0 mi Calm Calm - N/A   Clear
12:15 PM 98.6 °F 107.7 °F 72.0 °F 42% 30.30 in 7.0 mi Calm Calm - N/A   Clear
12:35 PM 99.3 °F 110.1 °F 73.0 °F 43% 30.29 in 7.0 mi Calm Calm - N/A   Clear
12:55 PM 99.3 °F 107.0 °F 70.3 °F 39% 30.29 in 7.0 mi Calm Calm - N/A   Clear
1:15 PM 100.0 °F 110.2 °F 72.1 °F 41% 30.28 in 7.0 mi Calm Calm - N/A   Scattered Clouds
1:35 PM 99.0 °F 108.5 °F 72.3 °F 42% 30.28 in 7.0 mi Calm Calm - N/A   Scattered Clouds
1:55 PM 98.8 °F 108.9 °F 72.5 °F 43% 30.27 in 7.0 mi Calm Calm - N/A   Scattered Clouds
2:15 PM 99.1 °F 108.1 °F 72.0 °F 41% 30.27 in 7.0 mi Calm Calm - N/A   Clear
2:35 PM 100.6 °F 108.9 °F 70.7 °F 38% 30.26 in 5.0 mi WSW 4.6 mph - N/A   Haze
2:55 PM 101.5 °F 110.9 °F 71.4 °F 38% 30.25 in 7.0 mi WSW 6.9 mph - N/A   Clear
3:15 PM 100.2 °F 108.9 °F 71.1 °F 39% 30.25 in 7.0 mi West 5.8 mph - N/A   Clear
3:35 PM 99.9 °F 106.7 °F 69.1 °F 37% 30.24 in 7.0 mi Calm Calm - N/A   Clear
3:55 PM 98.6 °F 106.9 °F 70.9 °F 41% 30.23 in 7.0 mi Calm Calm - N/A   Clear
4:15 PM 96.8 °F 106.6 °F 73.0 °F 46% 30.23 in 7.0 mi WSW 5.8 mph - N/A   Scattered Clouds
4:35 PM 97.2 °F 103.8 °F 70.2 °F 41% 30.22 in 7.0 mi SW 5.8 mph - N/A   Scattered Clouds
4:55 PM 97.3 °F 104.2 °F 70.0 °F 41% 30.22 in 5.0 mi West 4.6 mph - N/A   Haze
5:15 PM 97.2 °F 103.2 °F 69.3 °F 40% 30.21 in 7.0 mi West 6.9 mph - N/A   Clear
5:35 PM 96.3 °F 102.6 °F 69.4 °F 42% 30.20 in 7.0 mi West 5.8 mph - N/A   Clear
5:55 PM 95.4 °F 101.4 °F 69.6 °F 43% 30.20 in 7.0 mi West 4.6 mph - N/A   Clear
6:15 PM 94.8 °F 100.9 °F 70.0 °F 44% 30.20 in 7.0 mi WNW 4.6 mph - N/A   Clear
6:55 PM 93.2 °F 99.9 °F 71.1 °F 48% 30.19 in 7.0 mi Calm Calm - N/A   Clear
7:15 PM 91.6 °F 98.8 °F 71.4 °F 52% 30.19 in 7.0 mi West 3.5 mph - N/A   Clear
7:35 PM 89.8 °F 96.5 °F 71.6 °F 55% 30.19 in 7.0 mi Calm Calm - N/A   Clear
7:55 PM 87.4 °F 93.1 °F 71.1 °F 58% 30.19 in 7.0 mi Calm Calm - N/A   Clear
8:15 PM 83.7 °F 87.0 °F 68.5 °F 60% 30.18 in 5.0 mi Calm Calm - N/A   Haze
8:35 PM 80.6 °F 83.2 °F 67.8 °F 65% 30.18 in 5.0 mi Calm Calm - N/A   Haze
8:55 PM 78.4 °F - 66.4 °F 66% 30.19 in 7.0 mi Calm Calm - N/A   Clear
9:15 PM 77.2 °F - 65.8 °F 68% 30.20 in 7.0 mi Calm Calm - N/A   Clear
9:35 PM 76.5 °F - 66.4 °F 71% 30.20 in 7.0 mi Calm Calm - N/A   Clear
9:55 PM 75.9 °F - 65.8 °F 71% 30.21 in 7.0 mi Calm Calm - N/A   Clear
10:15 PM 75.0 °F - 65.3 °F 72% 30.20 in 7.0 mi Calm Calm - N/A   Clear
10:35 PM 74.3 °F - 65.1 °F 73% 30.21 in 7.0 mi Calm Calm - N/A   Clear
10:55 PM 74.5 °F - 66.2 °F 75% 30.20 in 7.0 mi Calm Calm - N/A   Clear
11:15 PM 73.8 °F - 65.3 °F 75% 30.20 in 7.0 mi Calm Calm - N/A   Clear
11:35 PM 73.4 °F - 64.6 °F 74% 30.20 in 7.0 mi Calm Calm - N/A   Clear
11:55 PM 73.0 °F - 64.9 °F 76% 30.20 in 7.0 mi Calm Calm - N/A   Clear